Wind_Speed
7 6 6 6 5 3 2 2 6 8 8 9 11 10 11 11 10 10 9 10 9 9 9 9 10 10 10 10 10 10 11 11 10 11 11 11 11 12 12 12 11 11 11 11 11 11 12 12 13
8 7 7 7 6 5 3 4 9 11 11 11 12 12 12 11 11 10 10 10 10 9 9 10 10 11 11 11 11 11 11 11 11 11 12 12 12 12 12 12 12 12 12 12 12 13 13 13 14
8 8 8 7 8 6 3 9 13 13 13 13 13 13 13 12 12 11 10 11 11 10 10 11 12 12 12 12 12 13 12 11 12 12 13 13 13 13 13 13 13 13 13 13 13 14 14 14 15
8 9 9 8 8 7 8 12 13 14 15 14 13 13 13 12 13 12 11 12 12 11 12 12 13 13 13 13 13 12 12 12 12 13 14 14 14 14 14 14 14 14 14 15 15 15 16 15 15
9 10 9 10 9 8 11 14 15 17 15 13 13 13 13 13 13 13 13 13 13 13 13 13 13 13 13 13 14 12 13 13 13 14 14 15 15 15 15 15 15 16 16 16 16 17 17 17 17
10 9 8 9 8 10 14 16 16 15 14 14 14 14 13 14 14 14 14 14 14 14 14 14 13 14 14 14 14 14 15 15 15 15 16 16 16 17 16 16 17 17 17 17 17 18 18 18 18
11 9 8 9 9 11 17 18 17 16 14 14 15 14 15 15 16 16 15 14 14 14 14 14 14 14 14 14 14 15 16 16 17 17 18 17 17 17 17 18 18 18 19 19 19 19 19 20 20
10 10 9 10 11 13 17 19 18 16 14 14 16 15 16 17 16 15 15 14 14 15 15 15 15 14 15 15 16 17 17 18 18 19 19 18 18 18 19 19 20 20 20 20 20 20 20 20 20
10 10 9 10 11 15 18 18 17 17 17 16 16 16 16 16 15 15 15 15 16 16 16 16 16 16 17 17 18 18 19 20 21 21 20 20 20 20 20 20 21 21 21 22 21 22 21 21 21
9 10 10 12 14 16 18 18 17 17 16 14 15 15 16 16 16 16 16 16 17 17 17 17 18 18 18 19 20 20 21 22 23 23 22 22 21 21 21 21 21 22 23 23 24 23 23 22 22
9 11 12 13 15 17 18 17 16 17 15 15 15 15 16 16 17 17 17 17 17 18 18 18 19 19 20 20 21 22 23 23 23 24 23 23 23 22 22 22 22 23 24 24 24 24 24 24 24
7 8 10 12 15 16 15 15 15 16 14 15 16 16 17 17 18 18 18 18 19 19 19 19 19 19 20 21 23 23 24 24 24 24 24 24 24 23 24 23 24 24 25 24 24 24 24 25 26
7 8 9 11 13 14 14 14 14 15 15 15 16 16 16 16 16 17 19 19 19 19 19 20 20 20 21 22 23 24 24 25 25 26 26 25 24 24 25 26 26 26 25 25 25 26 26 27 27
7 9 10 11 12 14 15 15 14 15 16 15 15 16 16 16 16 17 19 19 19 20 20 20 21 21 22 22 23 24 25 25 26 26 27 26 25 26 26 27 26 27 27 27 27 27 27 27 28
6 8 8 9 12 14 14 14 15 16 16 16 15 15 16 16 17 18 18 19 19 20 20 21 21 22 22 22 23 24 25 25 26 26 27 26 26 27 27 27 27 27 28 28 28 28 28 28 28
5 6 7 9 10 11 12 12 14 15 16 16 16 15 16 17 17 18 19 19 19 19 20 21 21 22 23 24 24 24 25 25 25 26 26 27 27 28 28 28 28 28 28 29 29 29 29 29 28
4 7 7 9 11 10 10 10 14 14 14 14 15 16 17 18 19 18 19 19 19 19 21 22 23 23 23 24 25 25 25 25 25 26 26 27 28 28 28 29 29 28 29 30 30 29 29 28 28
6 6 6 9 10 9 10 12 13 14 13 14 15 16 18 18 19 19 20 20 20 20 21 23 23 24 24 25 25 27 27 26 26 27 27 28 28 28 28 28 28 29 29 30 30 29 28 28 28
6 8 6 7 9 9 11 12 13 13 13 14 16 17 17 18 19 19 20 20 21 22 23 23 24 25 25 26 26 27 27 27 27 28 27 28 28 28 28 27 28 30 31 30 29 28 28 28 28
6 7 6 7 10 11 11 13 14 12 14 15 17 18 19 20 20 21 20 21 21 22 23 24 25 26 26 27 27 28 28 28 28 28 27 27 28 28 27 29 29 29 29 28 28 28 28 29 29
5 5 6 9 11 12 12 13 14 14 15 16 18 19 20 21 21 22 22 23 24 24 24 25 25 26 27 27 27 27 28 28 28 29 29 29 29 28 28 28 28 28 29 28 27 28 28 29 28
5 7 7 9 11 11 11 13 14 15 16 17 18 18 20 21 22 23 24 24 24 24 25 25 26 26 26 26 27 27 27 27 28 28 28 28 29 28 28 28 28 29 29 28 28 28 29 29 28
7 8 9 10 10 10 11 14 14 15 17 18 17 18 20 22 23 23 23 24 24 24 24 24 25 25 25 25 26 26 27 27 27 27 27 27 27 27 27 29 29 29 28 29 29 29 29 28 27
9 9 8 8 8 11 12 14 15 15 17 18 19 19 21 23 24 24 24 24 24 24 24 24 25 25 24 25 25 26 26 26 26 26 26 27 26 26 27 28 28 28 28 27 27 27 27 26 27
9 9 9 9 10 10 11 13 15 17 18 19 21 21 22 24 25 25 25 25 25 25 25 24 24 24 24 24 24 25 26 26 26 26 25 26 25 25 26 27 27 27 26 25 26 26 26 26 25
9 9 12 12 12 12 13 14 16 17 18 20 22 22 23 24 24 25 25 25 25 25 25 24 24 24 24 24 24 25 25 25 25 25 25 25 25 25 25 25 24 24 24 24 24 25 25 24 24
10 9 10 12 11 11 13 15 17 18 20 21 23 23 23 24 24 24 25 25 24 24 23 24 24 24 24 25 25 24 24 25 25 24 24 24 24 25 25 24 24 24 24 23 24 24 24 24 24
10 11 11 12 13 13 11 14 19 20 22 23 24 24 24 24 24 24 23 23 23 23 23 24 24 24 25 25 25 25 24 24 24 23 23 22 23 23 24 23 23 22 22 23 24 24 25 25 25
11 11 12 12 12 14 14 16 20 21 22 24 24 24 24 24 24 23 22 22 22 22 23 24 24 25 25 26 25 24 24 23 22 23 23 22 23 23 23 23 23 22 22 22 23 23 24 24 24
11 11 12 13 13 14 15 16 19 20 22 22 23 23 23 23 23 23 23 23 23 23 23 24 24 25 26 25 24 23 22 22 22 23 22 23 23 23 23 23 23 22 22 23 24 24 25 25 24
Wind_Direction
226 217 213 207 203 205 217 260 260 260 260 260 262 264 262 261 270 273 276 277 276 281 283 286 285 287 288 288 292 292 291 288 285 287 288 288 287 286 284 283 285 282 278 275 273 274 275 277 278
224 214 216 213 218 218 223 254 248 255 253 258 267 266 266 262 271 279 280 281 282 286 288 291 289 288 287 286 288 287 289 288 287 288 287 286 285 287 286 284 285 283 281 279 278 278 278 278 278
222 217 221 222 230 227 213 248 248 251 257 263 269 270 265 268 276 277 278 280 284 288 290 291 292 289 288 288 289 290 291 291 292 293 291 288 287 287 287 286 285 284 283 281 280 280 281 281 278
224 221 223 231 241 234 232 248 259 262 265 263 263 265 267 273 275 276 274 277 281 285 288 287 288 290 286 286 288 290 293 295 295 293 294 293 291 289 289 288 286 286 286 286 284 284 282 282 281
221 221 223 231 236 232 237 250 260 266 261 268 264 262 268 268 273 275 274 277 280 284 285 286 289 289 287 290 291 288 296 297 296 296 298 294 293 292 292 290 290 289 287 287 286 285 284 282 282
220 220 234 230 233 239 244 251 258 263 264 264 266 267 268 271 271 275 278 280 281 283 285 288 291 288 286 291 295 291 295 296 298 296 298 299 295 292 291 291 290 289 288 288 287 285 285 284 282
219 220 235 236 236 246 252 253 257 258 258 261 266 267 271 275 273 275 280 283 287 286 288 292 292 292 288 290 293 293 294 295 296 297 296 297 297 295 292 291 291 290 289 289 288 287 286 286 283
224 219 221 228 235 243 253 255 253 257 255 259 263 264 269 274 275 276 279 284 285 286 289 294 295 294 292 292 293 295 296 296 296 295 295 296 297 297 293 292 291 291 291 289 288 288 288 287 284
226 225 228 228 234 239 245 257 257 258 261 259 263 265 270 275 276 276 277 280 282 285 287 291 293 293 292 291 293 294 295 297 298 296 296 297 296 295 293 291 291 290 291 289 289 288 288 288 287
229 231 229 230 233 234 243 254 257 261 261 260 261 266 270 273 277 276 277 280 285 288 289 292 292 293 293 294 295 295 297 297 296 295 295 296 296 294 293 292 294 293 292 291 291 289 289 288 287
233 235 235 238 242 246 247 252 258 264 265 263 263 265 268 271 275 277 277 279 282 285 288 291 291 293 293 294 295 296 298 298 295 293 293 293 293 293 293 292 294 293 291 291 290 288 288 287 288
248 250 243 241 245 252 252 254 259 262 268 270 270 272 273 274 275 278 279 280 284 285 287 289 290 291 294 296 297 297 298 297 295 294 294 294 293 293 293 292 292 293 291 290 289 288 288 289 289
249 259 253 250 251 257 256 255 260 266 266 267 269 272 275 278 277 277 280 286 286 286 285 287 290 292 293 296 298 298 298 297 296 296 293 292 291 292 292 293 293 292 290 290 290 290 290 290 288
243 257 258 253 254 259 256 261 264 268 268 274 273 277 283 284 284 282 283 286 285 285 287 289 290 292 294 295 297 298 298 298 297 295 295 292 292 293 293 293 293 293 292 291 291 292 290 290 289
261 264 264 263 262 266 265 264 268 276 276 278 278 280 283 286 286 284 283 283 284 284 287 289 289 291 295 296 298 299 299 298 297 296 293 292 292 293 294 292 292 292 293 293 291 292 292 291 290
277 278 266 271 271 272 276 276 274 277 277 281 283 284 286 287 288 286 286 287 287 288 289 291 292 293 295 297 299 302 302 301 299 297 293 291 291 292 293 292 292 292 292 292 291 292 292 291 290
302 282 278 273 275 277 279 278 275 281 285 285 285 287 290 291 292 289 289 288 289 290 290 292 292 294 295 297 299 300 301 301 301 299 296 294 292 291 292 293 292 293 293 293 292 292 290 289 289
303 289 271 273 277 277 281 283 278 287 289 291 288 291 296 296 296 294 292 291 291 293 290 291 291 292 293 295 298 300 300 300 301 300 299 296 293 292 293 295 294 294 294 294 293 291 290 288 288
284 285 281 284 285 282 281 286 286 294 296 301 302 302 302 300 299 298 296 295 295 296 294 293 292 292 293 295 296 298 299 298 299 298 297 296 294 292 293 296 296 296 296 296 293 291 291 290 290
283 291 299 302 292 288 289 294 292 295 299 301 302 305 306 304 302 300 300 299 299 298 297 296 295 293 293 293 294 295 298 298 299 300 299 299 298 296 294 297 298 299 299 296 293 292 291 291 291
299 295 292 292 289 290 303 305 303 302 299 302 306 306 308 306 303 302 303 303 302 300 299 297 296 295 295 294 295 296 297 298 298 299 299 301 301 300 297 297 298 299 300 298 293 292 292 291 289
294 295 289 289 294 300 300 297 300 297 297 302 304 303 307 309 308 307 307 306 305 304 302 300 299 299 297 296 294 295 296 298 299 299 299 301 302 300 298 297 298 297 296 296 295 292 291 292 289
293 295 295 298 300 295 293 287 288 290 296 301 301 303 306 307 308 307 307 307 308 307 306 305 304 302 300 298 296 296 297 299 299 298 299 300 300 300 298 296 296 297 298 297 295 293 292 292 291
303 304 311 308 293 282 283 283 287 289 296 301 303 305 308 308 308 307 308 309 310 309 307 306 306 305 303 301 299 298 300 302 302 302 301 300 302 301 300 298 298 299 298 297 295 293 294 294 291
308 309 311 305 294 288 293 291 295 295 295 302 305 307 309 308 308 309 310 310 309 309 308 307 306 306 305 303 302 302 302 303 302 301 303 302 304 305 304 302 300 300 299 296 295 294 296 295 293
308 307 311 312 305 301 298 289 292 297 305 304 305 306 308 308 307 308 310 310 309 308 308 308 307 307 308 306 304 304 303 302 304 304 304 305 305 305 307 307 304 302 302 301 298 295 297 297 296
309 308 302 304 303 300 303 296 294 298 300 303 305 304 305 307 307 309 311 312 312 311 310 309 309 309 309 308 307 305 305 304 303 304 305 305 306 306 307 307 307 303 302 303 301 298 299 301 300
308 309 305 312 309 303 302 295 295 300 302 306 304 305 306 309 310 312 312 313 312 310 309 310 310 310 311 309 306 306 305 304 303 304 305 307 309 309 308 308 308 309 307 305 305 304 300 299 300
303 307 305 302 307 310 307 297 297 299 303 308 308 307 309 310 311 311 312 312 311 310 311 312 312 312 312 311 309 308 307 307 307 305 305 308 308 307 308 309 309 309 310 309 307 307 306 303 302
302 304 307 309 312 313 308 301 303 304 307 310 312 311 312 312 311 313 314 314 314 313 311 311 313 313 313 311 311 312 311 310 309 309 308 307 306 306 306 307 306 307 309 311 310 309 307 305 301
Height
5880 5881 5882 5883 5885 5887 5888 5889 5890 5889 5888 5887 5887 5887 5886 5886 5886 5888 5885 5884 5885 5884 5884 5884 5884 5884 5883 5883 5882 5882 5881 5881 5880 5879 5878 5878 5878 5877 5877 5876 5875 5874 5874 5873 5873 5872 5872 5871 5871
5878 5879 5881 5882 5883 5885 5888 5889 5888 5887 5886 5885 5886 5886 5885 5885 5885 5884 5883 5884 5883 5883 5883 5883 5883 5882 5882 5881 5881 5880 5880 5879 5878 5878 5877 5876 5876 5875 5874 5874 5873 5872 5871 5871 5870 5870 5869 5869 5868
5877 5877 5879 5880 5882 5884 5887 5887 5885 5884 5883 5884 5885 5884 5884 5884 5883 5883 5883 5882 5882 5882 5882 5881 5881 5881 5880 5880 5879 5878 5878 5877 5876 5876 5875 5874 5873 5873 5872 5871 5870 5869 5869 5868 5867 5867 5866 5866 5865
5874 5876 5877 5879 5881 5884 5885 5883 5882 5881 5882 5882 5883 5882 5881 5882 5881 5881 5881 5881 5880 5880 5880 5880 5879 5878 5878 5877 5877 5876 5876 5875 5874 5873 5873 5872 5871 5870 5869 5868 5867 5867 5866 5865 5864 5864 5863 5862 5862
5871 5873 5875 5877 5879 5882 5881 5881 5880 5880 5880 5880 5880 5880 5880 5880 5880 5880 5879 5879 5879 5878 5878 5877 5877 5876 5876 5875 5875 5874 5874 5873 5872 5871 5870 5869 5869 5867 5866 5866 5865 5864 5863 5862 5861 5860 5859 5859 5858
5870 5871 5873 5875 5878 5881 5880 5878 5878 5878 5877 5878 5878 5878 5878 5878 5878 5877 5877 5877 5877 5876 5876 5875 5874 5874 5873 5873 5872 5872 5872 5871 5870 5869 5868 5867 5865 5864 5863 5863 5862 5861 5860 5858 5857 5857 5856 5855 5854
5868 5868 5870 5873 5877 5879 5878 5876 5877 5876 5875 5876 5876 5876 5876 5876 5876 5875 5875 5875 5874 5874 5873 5873 5872 5871 5871 5870 5870 5870 5869 5868 5867 5866 5865 5864 5862 5861 5860 5859 5858 5857 5856 5855 5854 5853 5852 5851 5850
5865 5867 5868 5871 5874 5876 5875 5874 5874 5873 5873 5874 5873 5873 5873 5873 5873 5873 5873 5872 5872 5871 5870 5870 5869 5869 5868 5868 5867 5867 5866 5865 5864 5863 5862 5860 5859 5858 5857 5855 5854 5853 5852 5851 5850 5849 5847 5846 5845
5864 5866 5867 5869 5870 5872 5871 5870 5870 5870 5870 5871 5870 5870 5871 5870 5870 5871 5870 5870 5869 5868 5868 5867 5867 5866 5866 5865 5864 5863 5862 5861 5860 5859 5858 5857 5855 5854 5853 5852 5850 5849 5848 5846 5845 5844 5843 5842 5841
5862 5864 5866 5867 5866 5867 5867 5867 5866 5866 5867 5867 5868 5868 5868 5867 5867 5868 5868 5867 5866 5866 5865 5865 5863 5863 5862 5862 5861 5859 5858 5857 5856 5855 5853 5852 5851 5850 5849 5847 5846 5845 5843 5842 5841 5840 5838 5837 5836
5859 5861 5863 5863 5863 5863 5863 5863 5863 5864 5864 5865 5865 5865 5865 5865 5865 5865 5864 5864 5863 5863 5862 5862 5861 5860 5859 5858 5857 5855 5854 5853 5851 5850 5849 5848 5846 5845 5844 5843 5842 5840 5838 5837 5836 5835 5833 5832 5831
5857 5857 5858 5859 5860 5860 5859 5860 5861 5861 5862 5862 5862 5862 5862 5862 5862 5861 5861 5861 5860 5860 5859 5858 5857 5856 5855 5854 5852 5851 5850 5848 5847 5845 5844 5843 5842 5840 5839 5838 5837 5835 5834 5832 5831 5829 5828 5827 5825
5857 5856 5856 5857 5856 5857 5858 5859 5858 5858 5859 5859 5859 5859 5858 5859 5859 5859 5858 5857 5856 5856 5855 5854 5853 5852 5851 5850 5848 5846 5845 5843 5842 5841 5839 5837 5836 5835 5834 5832 5831 5829 5828 5827 5825 5823 5822 5820 5819
5855 5855 5855 5855 5856 5856 5857 5856 5855 5855 5855 5855 5856 5856 5855 5855 5855 5855 5854 5853 5852 5852 5851 5850 5849 5848 5847 5845 5843 5842 5840 5838 5837 5836 5834 5832 5831 5830 5829 5827 5825 5824 5822 5820 5819 5817 5816 5814 5812
5853 5855 5855 5855 5855 5855 5855 5855 5854 5853 5852 5853 5853 5852 5852 5852 5851 5851 5850 5848 5848 5847 5847 5846 5845 5844 5842 5841 5839 5838 5836 5834 5832 5830 5829 5827 5826 5824 5823 5821 5819 5818 5816 5814 5812 5811 5809 5807 5805
5854 5854 5855 5855 5854 5853 5855 5853 5852 5851 5850 5851 5850 5849 5849 5848 5847 5846 5845 5844 5844 5842 5842 5842 5841 5839 5838 5837 5835 5833 5831 5829 5827 5825 5823 5822 5820 5819 5817 5815 5813 5811 5810 5808 5806 5804 5802 5800 5798
5854 5854 5855 5855 5854 5853 5853 5852 5850 5849 5849 5849 5848 5847 5846 5845 5844 5842 5841 5840 5838 5838 5838 5837 5836 5835 5834 5832 5830 5828 5826 5824 5822 5820 5818 5816 5814 5813 5811 5809 5807 5805 5804 5801 5799 5797 5795 5793 5791
5855 5855 5854 5854 5853 5852 5852 5851 5848 5847 5847 5846 5845 5844 5843 5842 5841 5840 5838 5836 5834 5833 5833 5833 5832 5830 5829 5828 5826 5824 5822 5819 5817 5815 5813 5810 5809 5807 5805 5803 5801 5799 5797 5794 5792 5790 5788 5786 5785
5854 5854 5854 5854 5852 5851 5851 5849 5847 5844 5845 5844 5842 5842 5840 5839 5837 5836 5835 5833 5831 5830 5829 5828 5827 5826 5824 5823 5821 5819 5817 5814 5812 5809 5807 5805 5803 5801 5798 5796 5795 5792 5790 5787 5785 5783 5781 5779 5777
5853 5853 5852 5853 5852 5850 5849 5848 5846 5843 5844 5842 5841 5840 5838 5836 5834 5832 5831 5829 5827 5825 5824 5823 5821 5820 5819 5817 5815 5813 5811 5809 5807 5804 5802 5799 5797 5794 5792 5790 5788 5786 5783 5780 5777 5775 5774 5772 5770
5852 5852 5852 5852 5851 5849 5848 5846 5844 5843 5841 5840 5839 5837 5835 5833 5830 5829 5827 5824 5823 5821 5819 5818 5816 5815 5813 5811 5809 5808 5805 5803 5801 5799 5797 5794 5791 5789 5786 5783 5781 5779 5776 5773 5771 5769 5767 5765 5763
5852 5852 5851 5850 5849 5848 5848 5845 5843 5841 5838 5838 5836 5834 5832 5830 5827 5825 5822 5820 5818 5816 5814 5812 5811 5809 5807 5805 5803 5802 5800 5798 5795 5793 5791 5788 5785 5783 5780 5777 5774 5772 5769 5767 5764 5762 5760 5758 5756
5851 5850 5849 5848 5847 5846 5846 5844 5840 5838 5836 5835 5833 5831 5829 5827 5824 5822 5819 5816 5814 5811 5809 5807 5805 5803 5801 5799 5797 5795 5794 5791 5789 5787 5785 5782 5779 5776 5773 5771 5768 5766 5762 5760 5758 5755 5753 5751 5749
5850 5849 5847 5846 5846 5845 5844 5842 5838 5835 5834 5832 5829 5827 5826 5823 5820 5818 5815 5812 5809 5807 5804 5802 5800 5797 5795 5793 5791 5789 5787 5785 5783 5781 5778 5776 5773 5770 5767 5764 5761 5759 5756 5754 5751 5749 5747 5745 5743
5849 5848 5846 5845 5843 5842 5841 5839 5836 5832 5831 5830 5827 5824 5823 5819 5816 5813 5810 5807 5805 5802 5799 5797 5794 5792 5789 5787 5785 5783 5781 5779 5777 5774 5772 5769 5767 5764 5761 5758 5755 5752 5749 5747 5745 5743 5741 5738 5736
5847 5846 5845 5843 5842 5840 5838 5836 5834 5830 5827 5826 5824 5821 5818 5815 5812 5809 5806 5803 5800 5797 5794 5792 5789 5786 5784 5782 5779 5777 5775 5773 5770 5768 5766 5763 5760 5757 5755 5752 5749 5746 5744 5741 5739 5737 5735 5732 5730
5845 5844 5843 5841 5840 5839 5837 5834 5829 5827 5826 5823 5820 5817 5815 5812 5809 5805 5802 5798 5795 5792 5789 5786 5784 5781 5779 5776 5774 5771 5769 5766 5764 5762 5760 5757 5754 5752 5749 5746 5744 5741 5738 5736 5733 5731 5729 5726 5724
5844 5842 5841 5839 5837 5836 5835 5832 5827 5824 5822 5819 5816 5814 5811 5808 5805 5801 5798 5794 5791 5788 5785 5782 5779 5776 5774 5771 5768 5765 5763 5761 5759 5757 5754 5751 5749 5746 5744 5741 5738 5736 5733 5730 5728 5725 5723 5720 5718
5841 5840 5838 5836 5834 5833 5831 5831 5824 5822 5819 5816 5813 5810 5807 5804 5800 5797 5793 5790 5787 5784 5781 5778 5775 5772 5768 5765 5762 5759 5757 5755 5753 5751 5748 5746 5743 5741 5738 5736 5733 5731 5728 5725 5722 5720 5717 5714 5712
5839 5837 5836 5834 5832 5830 5828 5828 5821 5818 5816 5813 5809 5806 5802 5799 5796 5792 5789 5786 5783 5780 5777 5773 5770 5767 5763 5760 5757 5754 5752 5750 5748 5745 5743 5740 5738 5736 5733 5731 5728 5726 5723 5720 5717 5714 5711 5709 5706